Torna al catalogo

STARLINK-6167

AttivoComunicazioniVLEO
NORAD 57126·PAYLOAD·🇺🇸 United States

Lanciato Jun 23, 2023 da Cape Canaveral Space Force Station

Loading…

Prossimi Passaggi (prossime 24 ore)

TLE

AggiornatoSource: CelesTrak SupGP

Epoca: Sep 14, 2026, 21:59 UTC

1 57126C 23090AB  26257.91645833  .00002748  00000+0  99538-4 0  2571
2 57126  43.0034 293.3096 0001840 287.8406 203.2982 15.27570061    18

Traccia STARLINK-6167 in tempo reale con AllMySat

Download on the App Store